Погода в Ускуч

Россия / Республика Алтай     52°02′08″N   86°54′31″E
темп.,
°C
ветер,
м/с
пор.,
м/с
влажн.,
%
обл.,
%
осадки,
мм/ч
давл.,
гПа
погр.,
м
17 апреля, сб
сб1701:00+2ю239961 0.0 101751
04:00+1ю229897 0.0 101541
07:00+1юз119779 0.0 101519
10:00+9з31079100 0.2 1014939
13:00+3сз3698100 3.7 1018512
16:00+2сз1299100 2.8 1022131
19:00+1зюз12100100 3.5 1023108
22:00+1з1199100 0.3 1024141
18 апреля, вс
вс1801:000юз1196100 0.4 102391
04:00−1зсз009863 0.0 102119
07:00−2ююз119750 0.0 102254
10:00+4з137932 0.0 1020558
13:00+7зсз2361100 0.0 10181169
16:00+7зсз2365100 0.0 10171051
19:00+6юв118375 0.0 101523
22:00+1ююв229531 0.0 101533
19 апреля, пн
пн1901:000ю24945 0.0 101250
04:00+5ююз41371100 0.0 1007317
07:00+5зсз4987100 0.0 1008444
10:00−1зсз61495100 5.5 10161089
13:00−1зсз4775100 6.4 10211200
16:00−1з2383100 0.9 1022700
19:00−2юз1290100 1.9 1022329
22:00−3зсз1296100 1.4 1022203
20 апреля, вт
вт2001:00−4с2495100 3.3 1023442
04:00−5с1491100 0.6 1023478
07:00−6ссз1285100 0.8 1024425
10:00−4с2269100 0.1 10241007
13:00−2ссз2262100 0.3 10231412
16:00−1ссз2354100 0.1 10221592
19:00−1зсз2461100 0.2 1023382
22:00−6з1189100 0.0 102513
21 апреля, ср
ср2101:00−6юз129293 0.0 102643
04:00−10ююз119743 0.0 102623
07:00−9ю12895 0.0 102774
10:00−2юв1166100 0.0 1025837
13:00+1ююв0153100 0.0 10231535
16:00+2ссз1149100 0.0 10221572
19:00+1с1260100 0.0 1023158
22:00−4сз1187100 0.0 102510